Find GalileoSat-22

NORAD ID: 43058 Int'l Des: 2017-079 Owner: GSAEU Country: I-EU Constellation: Galileo operational
MEOCIRCULAR

現在のビュー

3D地球を読み込み中...

About GalileoSat-22

GalileoSat-22 (NORAD 43058) is a Galileo constellation satellite launched Dec 12, 2017 by GSAEU of I-EU. It operates in MEO, CIRCULAR orbit with a mass of 715.00 kg.

GalileoSat-22について

説明を読み込み中...

次回通過

Passes for default location (London). Set your location on the main map for personalized predictions.

高度履歴

Loading altitude history...

軌道要素

1 43058C 17079D 26176.01020833 .00000000 00000+0 00000+0 0 1768
2 43058 55.0701 221.2868 0005184 273.8896 223.3902 1.70474796 17
Epoch: Jun 25, 2026 • Age: 54 hours

現在のステータス

高度 23242.5 km
速度 3.67 km/s
衛星直下点 49.79°N, 86.61°W
打ち上げ日 Dec 12, 2017
運用期間 8.5 years
タイプ navigation

技術仕様

分類 Payload
質量 715.00 kg
乾燥質量 700.00 kg
総質量 715.00 kg
長さ 2.70 m
直径 1.60 m
スパン 14.70 m
形状 Box+2 pan
製造者 OHB
バスタイプ GalileoSat
フェーズステータス In Orbit
所有者/国 GSAEU/I-EU

Most Searched